Location: Passau
(48.5830°N, 13.4830°E)
Time: 20:14:24
(UTC+02:00)

S-56A Canister/Altair - Pass Details

Date: 23 May 2024
Orbit: 637 x 2489 km, 38.9° (Epoch: 15 June)

Event Time Altitude Azimuth Distance (km) Brightness Sun altitude
Rises 10:44:59 0° 266° (W) 5,147 11.4 50.8°
Reaches altitude 10° 10:49:06 10° 260° (W) 3,841 10.9 51.4°
Maximum altitude 10:57:27 37° 198° (SSW) 1,781 10.1 52.5°
Drops below altitude 10° 11:03:17 10° 133° (SE) 2,657 11.1 53.3°
Sets 11:05:38 0° 124° (SE) 3,416 11.4 53.6°
